BMCB-7 Weather Reports


Display with metric or nautical units.
time (UTC)temp
F
wind
direction
speed
MPH
gust
MPH
rain 1hr
in
rain 24hr
in
rain mn
in
humidity
%
barometer
mb
20260505165052 50 21 6.0 10.0 0.03 0.06 0.06 99 1007.1
20260505164050 50 28 6.0 10.0 0.03 0.05 0.05 99 1007.2
20260505163055 50 28 6.0 10.0 0.04 0.05 0.05 99 1007.1
20260505162049 50 26 7.0 13.0 0.03 0.04 0.04 98 1007.2
20260505152050 51 13 7.0 12.0 0.01 0.01 0.01 98 1007.2
20260505151046 51 10 7.0 12.0 0.01 0.01 0.01 97 1007.2
20260505124048 55 13 7.0 12.0 0.00 0.06 0.00 92 1007.6
20260505123048 55 7 7.0 12.0 0.00 0.06 0.00 92 1007.6
20260505122047 55 10 7.0 11.0 0.00 0.06 0.00 92 1007.7
20260505121047 55 7 7.0 11.0 0.00 0.07 0.00 93 1007.7
20260505120047 55 3 7.0 11.0 0.00 0.07 0.00 93 1007.7
20260505115047 55 7 7.0 11.0 0.00 0.07 0.00 93 1007.8
20260505114049 55 358 8.0 12.0 0.00 0.07 0.00 93 1007.8
20260505113046 55 358 8.0 12.0 0.00 0.07 0.00 93 1007.9
20260505112049 55 7 7.0 11.0 0.00 0.08 0.00 93 1007.9
20260505102046 55 8 5.0 8.0 0.00 0.08 0.00 92 1008.3
20260505101052 55 8 5.0 8.0 0.00 0.08 0.00 92 1008.4
20260505100047 55 347 3.0 7.0 0.00 0.09 0.00 92 1008.3
20260505095049 55 174 3.0 6.0 0.00 0.09 0.00 92 1008.3
20260505093048 57 92 5.0 9.0 0.00 0.09 0.00 89 1008.3
20260505092047 56 98 4.0 8.0 0.00 0.09 0.00 90 1008.3
20260505091050 57 92 3.0 6.0 0.00 0.09 0.00 86 1008.3
20260505090048 57 103 3.0 6.0 0.00 0.09 0.00 85 1008.2
20260505085048 56 89 3.0 5.0 0.00 0.09 0.00 86 1008.3
20260505083049 56 86 3.0 5.0 0.00 0.09 0.00 87 1008.4
20260505082048 55 99 3.0 6.0 0.00 0.09 0.00 90 1008.6
20260505081046 55 102 2.0 5.0 0.00 0.09 0.00 92 1008.7
20260505080019 54 90 2.0 4.0 0.00 0.09 0.00 94 1008.7
20260505075023 54 138 2.0 3.0 0.00 0.09 0.00 98 1008.7
20260505074022 53 155 2.0 5.0 0.00 0.09 0.00 99 1008.8
20260505073022 53 76 2.0 5.0 0.00 0.09 0.00 99 1008.9
20260505072029 52 37 3.0 5.0 0.00 0.09 0.00 99 1009.0
20260505071038 52 32 3.0 5.0 0.00 0.09 0.00 99 1009.1
20260505070017 52 21 3.0 5.0 0.00 0.09 0.00 99 1009.2
20260505065020 52 3 2.0 4.0 0.00 0.09 0.00 99 1009.2
20260505064018 52 349 1.0 2.0 0.00 0.09 0.00 99 1009.3
20260505063018 52 65 1.0 2.0 0.00 0.09 0.00 99 1009.2
20260505062019 51 26 1.0 3.0 0.00 0.09 0.00 99 1009.3
20260505061021 51 17 2.0 3.0 0.00 0.09 0.00 99 1009.4
20260505060017 51 7 2.0 4.0 0.00 0.09 0.00 99 1009.3
20260505054048 50 349 3.0 4.0 0.00 0.09 0.00 99 1009.3
20260504181053 55 145 3.0 5.0 0.00 0.09 0.09 90 1011.3
20260504180024 55 142 3.0 5.0 0.00 0.09 0.09 89 1011.4
20260504175052 55 142 3.0 5.0 0.00 0.09 0.09 89 1011.4
20260504174052 55 135 2.0 5.0 0.00 0.09 0.09 89 1011.5
20260504171021 55 143 2.0 4.0 0.00 0.09 0.09 90 1011.6